Temperature
7 6 6 6 7 8 8 8 8 9 11 12 12 13 14 15 16 16 17 18 18 18 19 18 18 18 18 17 17 17 16 16 16 15 15 14 14 13 13 13 12 12 12 11
6 6 7 7 7 8 7 7 8 9 11 12 11 12 14 15 15 16 17 17 18 17 17 17 17 17 17 16 16 16 16 15 15 15 14 14 14 13 13 12 12 12 11 11
6 7 8 8 7 7 7 7 7 8 10 11 11 11 13 14 15 17 17 18 18 17 17 16 16 16 15 15 15 15 15 14 14 14 14 13 13 12 12 12 11 11 11 10
6 7 7 7 7 7 7 8 9 9 9 9 11 11 12 14 14 15 16 17 17 17 16 16 15 14 14 14 14 14 14 13 13 13 13 13 13 12 12 11 11 11 10 10
6 6 7 7 7 8 7 9 9 9 8 8 10 10 11 13 14 15 15 15 16 16 16 15 14 14 13 13 13 13 13 13 13 13 13 13 12 12 11 11 10 10 9 9
6 7 7 7 8 8 8 8 8 8 8 8 9 10 11 13 14 15 15 15 14 14 14 13 13 12 12 12 12 12 12 12 12 12 12 12 12 12 11 10 10 9 9 8
6 7 7 7 7 7 7 7 7 7 8 9 11 10 11 13 14 15 15 13 12 12 12 12 12 12 11 11 12 12 12 12 11 11 11 11 11 11 10 10 9 9 8 8
5 6 7 7 7 7 7 7 7 8 8 10 11 11 12 14 14 15 15 13 11 10 11 11 11 11 11 11 11 11 11 11 11 11 11 11 10 10 9 9 8 8 7 7
6 6 8 8 8 8 7 7 8 8 9 10 11 12 13 13 13 12 12 11 10 9 9 10 11 11 11 11 11 11 11 11 11 11 11 10 9 9 9 8 8 7 7 6
6 6 7 8 8 7 8 8 7 7 9 10 11 11 12 12 11 11 10 10 9 8 9 10 10 10 10 10 11 11 11 11 11 10 10 9 9 8 8 7 7 7 6 5
6 6 7 7 7 7 7 7 7 8 8 10 11 12 13 13 12 11 10 10 9 8 8 9 9 10 10 10 10 10 11 11 10 10 9 9 8 8 7 7 6 6 5 4
6 6 6 7 8 9 8 8 8 8 9 10 11 13 14 13 13 12 11 10 9 8 8 9 9 9 9 10 10 10 10 10 10 9 8 8 7 7 6 6 6 5 4 3
7 6 6 8 8 8 8 9 9 9 9 10 11 13 12 11 11 11 11 10 9 8 8 9 9 9 9 9 9 10 9 9 9 8 8 7 6 6 6 5 4 4 3 2
8 7 7 8 9 8 9 9 9 9 10 11 11 12 12 11 11 10 10 9 9 8 8 9 9 9 9 9 9 9 9 8 8 7 7 6 6 5 5 4 3 3 2 2
8 7 7 8 9 10 9 10 10 10 11 11 12 13 13 11 11 10 10 9 9 8 8 9 9 9 9 8 8 8 8 7 7 6 6 5 5 5 4 3 2 2 2 1
8 8 8 9 10 10 10 10 11 11 11 12 13 14 13 10 10 10 10 10 9 8 8 8 9 9 9 8 8 7 7 6 6 5 5 5 4 4 3 2 2 1 1 0
8 8 8 9 10 11 10 11 11 11 12 13 13 14 12 11 10 10 10 10 10 9 9 9 10 10 9 8 8 7 6 6 5 5 5 4 3 3 2 2 1 1 0 -0
8 8 8 9 10 10 12 12 12 12 13 13 14 14 13 13 12 12 11 11 11 10 9 9 9 9 9 8 7 7 6 5 5 4 4 3 2 2 1 1 0 -0 -0 -1
8 9 9 8 9 10 12 13 12 12 13 13 13 13 11 11 11 11 12 12 12 11 10 10 9 9 9 8 7 6 5 5 4 4 3 2 2 1 1 0 -0 -1 -1 -1
8 9 9 9 9 10 12 13 12 13 12 13 12 11 9 10 11 10 12 13 12 11 10 9 9 9 8 7 6 5 5 4 4 3 2 2 1 1 0 -0 -1 -1 -2 -2
8 8 8 9 9 10 11 12 13 12 12 12 11 11 10 11 12 11 12 12 12 11 10 10 9 8 8 7 6 5 4 4 3 2 1 1 0 -0 -0 -1 -1 -2 -2 -2
8 8 8 8 9 10 12 12 12 12 11 10 10 10 10 8 9 10 10 11 11 10 9 9 8 7 6 6 5 4 4 3 2 1 1 0 -0 -1 -1 -1 -2 -2 -3 -3
8 9 8 9 10 10 11 12 12 12 11 10 9 9 9 7 6 7 8 9 9 9 8 8 8 6 5 4 4 4 3 2 1 1 0 -0 -1 -1 -2 -2 -2 -2 -3 -3
8 8 8 9 9 10 11 11 12 12 12 11 10 10 10 8 6 7 7 8 8 8 7 7 6 5 4 3 3 2 2 1 1 0 -0 -1 -1 -2 -2 -3 -3 -3 -3 -4
8 8 8 9 9 9 10 11 11 12 11 10 9 9 9 9 7 8 7 7 7 6 6 6 5 4 3 2 2 1 1 1 0 -0 -1 -1 -2 -2 -2 -3 -3 -4 -4 -6
8 8 9 9 9 8 9 10 11 11 10 10 9 7 8 9 8 8 7 6 6 5 5 4 4 3 3 2 1 1 0 -0 -0 -1 -1 -2 -2 -3 -3 -3 -3 -4 -5 -6
Wind_Speed
4 5 9 12 14 10 7 10 13 9 7 9 17 21 15 13 12 12 11 10 10 10 7 7 6 6 6 6 8 9 12 12 13 12 9 9 8 8 9 9 13 15 15 15
4 12 13 8 8 10 12 17 18 13 9 11 15 22 16 16 16 15 15 14 11 8 7 7 6 5 6 7 9 10 12 11 10 10 8 7 8 8 8 7 11 15 15 13
13 4 10 13 13 13 15 17 15 14 13 12 14 18 20 18 16 17 16 15 13 16 16 11 8 7 8 9 10 11 12 12 13 13 13 12 9 6 5 7 7 9 13 13
10 12 9 9 13 14 18 12 15 15 12 9 9 11 13 15 16 18 18 15 15 14 13 12 11 10 10 9 10 13 13 14 13 13 14 14 10 8 5 6 6 7 11 11
9 9 14 17 18 15 10 6 11 13 13 15 15 13 10 9 18 21 19 17 16 16 17 16 13 12 10 11 12 12 13 13 11 11 12 13 11 9 7 7 8 7 6 9
11 7 9 11 14 16 10 7 10 11 10 17 23 15 10 11 18 16 18 17 17 17 16 14 11 12 11 11 12 12 14 12 11 12 11 14 14 12 11 8 7 5 4 5
10 14 12 8 8 10 12 8 6 8 10 13 13 14 13 13 13 18 19 19 20 20 20 18 17 15 14 13 13 13 15 13 12 13 12 12 12 11 10 9 7 6 3 3
7 8 12 12 16 11 16 15 9 7 8 7 11 15 11 13 12 11 14 19 22 21 19 19 18 16 15 15 14 15 15 14 13 13 12 10 10 8 7 8 6 5 3 2
8 7 5 11 11 12 10 14 12 6 7 6 10 8 8 4 5 10 17 20 22 21 19 18 16 14 15 15 14 15 16 14 13 13 12 11 10 9 8 7 6 5 3 2
8 7 6 5 7 13 9 7 7 9 6 7 8 9 9 9 11 15 21 21 20 18 17 17 15 14 12 12 12 12 14 15 13 12 10 10 9 9 8 7 7 5 3 3
9 7 5 4 10 14 12 10 8 8 8 4 5 7 8 15 19 21 21 21 22 21 20 18 15 13 13 13 13 13 13 14 12 11 11 10 9 8 7 6 5 4 3 3
10 6 7 9 9 11 12 13 12 7 7 6 3 5 4 11 16 20 20 18 17 18 17 16 16 14 14 14 13 13 12 12 11 11 11 9 8 8 7 6 4 4 3 3
11 7 5 5 6 9 10 13 15 10 5 4 4 5 5 8 11 13 17 18 16 17 17 14 15 15 15 14 13 12 12 12 11 11 10 9 8 7 6 5 4 3 3 4
11 6 8 7 4 3 7 12 16 12 5 4 4 3 2 9 11 12 14 17 17 18 18 16 15 14 14 13 13 13 11 11 11 10 10 9 7 6 5 4 3 3 4 5
7 6 9 15 15 12 10 10 13 12 8 3 2 2 6 9 12 15 16 17 18 18 18 18 17 14 14 13 12 12 12 11 11 10 9 7 7 6 5 3 3 3 4 5
7 5 6 9 11 11 10 10 9 10 7 5 2 3 2 6 8 11 15 19 20 20 19 18 18 17 17 16 15 14 12 11 10 10 8 7 6 5 4 3 3 4 5 5
7 4 3 5 5 3 5 10 11 8 7 5 3 2 5 6 11 16 18 19 21 20 20 20 20 19 17 16 16 15 13 11 10 9 8 7 6 4 3 3 4 4 5 5
7 4 2 4 3 2 6 4 8 8 7 7 4 4 6 7 7 7 9 15 17 18 18 18 16 15 14 14 15 14 13 11 10 9 7 6 5 4 2 3 4 4 4 5
7 5 2 2 3 5 6 1 4 6 6 5 7 5 5 7 7 2 3 8 12 13 13 13 13 15 16 17 16 15 12 11 10 8 7 6 5 3 2 3 4 4 4 5
6 4 1 2 2 3 4 3 1 4 4 2 5 8 9 10 6 6 3 7 10 12 13 15 16 17 17 15 16 15 13 10 9 8 7 5 4 2 1 3 4 3 4 6
6 4 5 3 3 6 7 4 3 5 5 3 2 6 11 9 6 7 9 10 13 15 17 17 18 16 16 15 15 14 12 9 8 8 6 5 3 1 2 3 3 5 6 7
9 7 6 5 5 8 4 2 5 4 1 2 1 2 8 10 12 13 13 15 17 17 17 17 17 15 12 13 15 13 10 9 8 7 6 4 2 2 2 4 5 5 6 7
8 9 7 9 8 4 1 2 1 3 3 2 3 7 14 13 12 14 14 15 15 16 15 14 17 15 11 10 12 13 9 9 8 7 5 3 2 2 3 4 5 5 5 5
5 5 4 5 7 4 1 1 2 3 4 6 8 11 13 16 16 16 15 14 13 14 14 15 16 15 10 9 9 10 9 8 8 6 4 2 2 3 4 4 4 4 5 6
7 8 6 5 3 1 1 2 4 7 10 12 11 10 14 19 16 15 14 14 13 13 11 12 13 13 11 10 9 9 8 8 7 5 3 1 1 3 4 4 4 5 4 7
5 7 8 7 8 7 6 6 8 10 10 13 15 12 9 13 16 14 12 11 12 12 11 11 11 12 10 10 9 8 7 7 7 4 1 1 2 3 3 4 5 8 10 14
Wind_Direction
192 189 213 213 215 239 275 277 276 278 295 274 260 262 254 243 243 242 243 239 232 221 201 177 158 134 119 119 124 126 126 128 127 124 118 111 102 97 87 81 79 78 75 71
219 231 227 217 222 237 251 264 272 285 279 276 272 270 260 239 233 232 236 232 215 190 178 178 154 133 129 128 124 124 127 125 123 120 113 111 111 99 91 83 74 72 71 68
213 225 212 217 227 235 242 245 255 266 295 289 281 273 256 245 235 232 231 225 201 185 181 174 155 141 131 129 129 127 123 120 119 118 115 113 104 94 83 78 72 66 71 69
234 241 249 229 228 225 248 240 248 258 263 265 244 269 256 235 233 233 231 220 202 186 172 163 153 144 137 131 123 122 122 122 122 123 127 129 127 121 112 106 92 73 68 67
223 209 218 231 233 226 240 237 244 251 254 261 256 262 265 222 227 228 223 212 196 179 168 161 154 144 134 128 122 121 119 117 115 115 120 118 114 114 112 104 94 79 63 61
234 230 216 223 232 228 236 254 257 251 248 248 240 236 260 223 221 219 215 203 182 166 156 146 136 131 126 122 120 121 118 113 112 111 112 119 122 124 120 113 108 91 72 52
242 237 228 213 227 220 211 220 229 217 218 238 211 217 245 239 219 212 206 190 170 160 154 150 146 143 139 132 126 123 121 117 114 111 109 115 120 121 124 124 118 110 89 63
232 250 213 206 212 210 205 206 214 220 218 228 193 219 237 242 243 214 187 166 158 157 156 154 152 147 143 137 131 127 124 121 117 114 111 109 110 111 113 114 115 111 110 103
221 251 219 208 203 198 196 210 223 264 276 239 208 225 256 227 199 160 151 154 157 157 155 153 149 146 143 138 135 132 129 124 120 118 114 109 108 110 112 110 104 103 100 94
207 257 258 215 193 209 212 184 178 213 244 231 207 209 211 186 174 157 157 159 156 153 152 151 150 146 140 134 129 125 127 127 124 120 119 118 112 112 113 108 104 102 87 62
195 231 267 213 211 202 193 201 203 205 239 251 192 230 212 184 175 168 167 163 160 158 157 155 151 144 136 132 131 129 128 127 124 119 116 116 114 113 109 106 106 101 76 45
190 214 252 238 222 207 210 209 199 210 225 231 224 252 275 182 172 166 163 161 158 155 154 152 149 144 142 141 139 136 134 131 128 125 120 118 116 113 108 106 99 85 57 23
176 208 254 257 214 199 215 213 209 221 264 239 202 255 351 134 141 154 154 153 153 151 150 149 151 152 151 148 145 141 137 133 129 125 121 118 117 115 113 107 89 63 33 1
177 206 223 252 270 225 217 206 206 211 230 255 234 201 87 137 144 147 151 152 153 156 157 157 157 156 153 151 147 142 136 134 132 126 123 124 125 123 120 106 74 37 10 347
184 234 245 260 264 257 246 227 205 210 228 238 256 185 195 174 163 159 154 152 154 160 164 165 163 158 153 148 144 141 137 135 133 128 126 128 128 122 112 88 45 12 355 344
188 248 273 271 262 246 244 236 215 218 229 243 307 5 68 109 114 139 154 161 167 171 171 169 165 161 159 155 149 143 138 136 132 129 129 130 126 119 104 66 24 3 349 338
191 224 285 291 284 195 239 219 201 204 209 203 213 221 117 125 156 166 170 173 176 176 174 173 171 167 161 155 149 144 141 135 130 130 131 131 127 117 89 44 16 352 336 328
183 194 259 302 332 256 255 230 186 194 211 197 186 170 160 162 157 163 174 178 178 176 174 171 164 154 146 141 140 135 135 134 132 131 133 131 125 110 71 27 354 327 313 314
179 178 243 298 309 298 306 10 167 186 244 208 196 180 141 118 94 81 195 180 177 168 158 150 144 139 138 140 139 134 132 131 131 135 136 133 126 108 46 353 324 309 306 306
177 169 210 296 301 269 283 323 301 129 265 265 191 187 167 141 156 211 176 143 133 127 129 130 131 132 135 138 136 134 136 136 139 140 137 131 121 101 0 317 304 298 299 294
163 181 205 235 276 275 266 292 96 143 238 308 239 193 174 179 175 136 113 108 116 119 123 127 130 134 137 137 133 133 136 140 138 132 128 120 104 57 319 313 302 303 303 305
167 175 185 180 218 255 264 129 163 204 273 23 13 138 136 112 104 106 107 110 113 116 120 125 125 125 127 131 131 132 135 133 127 125 120 108 75 5 352 332 314 310 311 312
191 188 184 194 213 248 257 196 188 152 129 97 91 111 121 114 110 110 108 110 112 117 118 121 123 121 117 122 130 133 135 132 125 119 112 94 41 359 341 321 315 316 318 317
235 177 171 228 256 252 245 89 67 84 106 103 112 118 120 118 118 115 114 113 113 115 118 122 122 123 120 115 117 126 132 128 122 119 110 80 16 334 326 317 312 315 316 316
205 171 182 231 256 121 256 163 116 94 98 99 91 98 121 122 121 121 119 118 118 117 116 121 126 128 126 121 117 122 126 122 118 116 106 57 329 311 312 316 313 320 299 317
193 177 177 211 204 186 201 157 131 121 121 121 114 101 101 120 123 121 118 120 122 122 120 119 121 125 125 124 123 124 123 121 121 121 127 272 293 300 308 317 320 333 338 335
Height
1482 1486 1484 1483 1483 1483 1483 1482 1480 1476 1473 1472 1465 1457 1455 1455 1455 1453 1453 1453 1454 1455 1457 1459 1461 1462 1463 1465 1466 1468 1471 1474 1477 1480 1484 1487 1491 1493 1496 1497 1498 1499 1500 1500
1483 1481 1478 1479 1481 1482 1483 1482 1478 1475 1473 1470 1464 1455 1449 1447 1446 1446 1447 1448 1449 1451 1453 1455 1456 1458 1460 1461 1463 1465 1468 1471 1475 1478 1482 1486 1489 1492 1495 1496 1497 1499 1499 1499
1477 1473 1472 1476 1479 1480 1478 1478 1477 1478 1473 1468 1465 1452 1442 1437 1437 1438 1439 1440 1443 1445 1447 1449 1452 1454 1457 1459 1461 1463 1466 1469 1473 1477 1481 1485 1488 1491 1494 1495 1497 1498 1498 1498
1474 1472 1472 1472 1473 1475 1472 1470 1472 1473 1475 1469 1462 1453 1434 1430 1431 1429 1430 1432 1434 1438 1441 1444 1447 1451 1454 1456 1459 1462 1465 1469 1473 1477 1480 1483 1486 1489 1492 1494 1496 1497 1497 1496
1466 1465 1466 1467 1466 1468 1467 1466 1468 1468 1470 1469 1461 1456 1433 1425 1422 1418 1420 1423 1425 1430 1434 1439 1444 1448 1451 1454 1458 1461 1465 1469 1473 1477 1480 1483 1486 1489 1491 1493 1495 1495 1495 1494
1461 1460 1459 1458 1458 1461 1462 1465 1465 1464 1467 1460 1447 1451 1430 1417 1407 1406 1409 1413 1417 1423 1429 1435 1441 1446 1450 1453 1457 1461 1465 1469 1473 1476 1480 1483 1486 1488 1490 1492 1493 1494 1493 1492
1456 1454 1452 1453 1456 1457 1460 1465 1463 1458 1455 1442 1430 1437 1419 1401 1395 1394 1398 1403 1409 1417 1424 1431 1437 1442 1447 1451 1455 1460 1464 1468 1472 1476 1480 1483 1486 1488 1490 1491 1492 1492 1491 1490
1454 1449 1443 1442 1445 1447 1449 1455 1454 1447 1440 1429 1422 1418 1402 1391 1387 1387 1390 1396 1405 1413 1419 1426 1433 1439 1444 1448 1453 1458 1463 1467 1472 1476 1480 1483 1486 1488 1489 1490 1490 1490 1489 1488
1447 1442 1432 1432 1434 1440 1442 1444 1442 1443 1431 1423 1411 1402 1393 1386 1384 1384 1390 1397 1402 1409 1417 1424 1431 1437 1442 1447 1453 1458 1463 1467 1472 1476 1479 1482 1485 1487 1488 1488 1488 1488 1487 1485
1441 1440 1431 1428 1432 1433 1433 1433 1439 1441 1427 1413 1404 1398 1389 1384 1384 1385 1389 1395 1402 1409 1416 1424 1430 1437 1442 1448 1453 1459 1463 1467 1471 1475 1479 1482 1484 1485 1486 1486 1486 1485 1484 1483
1435 1438 1430 1428 1424 1422 1429 1430 1428 1427 1423 1407 1399 1390 1368 1371 1374 1380 1386 1392 1399 1407 1414 1422 1430 1437 1442 1448 1453 1458 1463 1467 1471 1474 1478 1480 1482 1484 1484 1484 1484 1483 1482 1480
1429 1432 1427 1419 1412 1413 1415 1415 1417 1416 1409 1403 1395 1383 1363 1364 1369 1375 1384 1393 1401 1407 1415 1422 1429 1436 1441 1447 1452 1457 1462 1466 1470 1473 1477 1479 1481 1482 1482 1482 1481 1480 1479 1477
1423 1426 1422 1411 1409 1409 1408 1406 1407 1408 1404 1397 1393 1381 1365 1366 1373 1379 1385 1394 1402 1409 1416 1423 1429 1434 1440 1445 1451 1456 1461 1465 1469 1472 1475 1477 1479 1480 1480 1480 1479 1478 1477 1475
1415 1417 1416 1405 1396 1398 1397 1396 1398 1401 1398 1391 1384 1376 1371 1372 1376 1382 1389 1395 1402 1409 1415 1421 1427 1433 1439 1444 1450 1455 1460 1464 1468 1471 1474 1476 1477 1478 1478 1477 1477 1475 1474 1472
1410 1409 1405 1398 1392 1390 1390 1388 1388 1390 1388 1387 1380 1373 1371 1372 1375 1380 1388 1395 1402 1409 1414 1419 1425 1431 1437 1443 1448 1454 1458 1463 1466 1470 1472 1474 1475 1476 1476 1475 1474 1473 1471 1468
1405 1404 1400 1392 1384 1382 1382 1382 1382 1382 1382 1381 1376 1373 1369 1373 1377 1383 1388 1394 1400 1405 1411 1417 1422 1428 1434 1440 1446 1451 1457 1461 1466 1469 1471 1473 1473 1474 1473 1473 1472 1470 1468 1465
1400 1401 1397 1389 1380 1378 1380 1374 1376 1377 1376 1376 1377 1374 1372 1375 1378 1382 1386 1391 1395 1401 1407 1412 1418 1424 1431 1437 1443 1449 1455 1460 1465 1468 1470 1471 1471 1471 1471 1470 1469 1467 1464 1461
1396 1397 1397 1391 1383 1383 1373 1363 1365 1370 1371 1371 1370 1371 1371 1373 1377 1382 1384 1388 1393 1398 1404 1410 1416 1423 1430 1437 1444 1450 1455 1460 1463 1466 1468 1469 1469 1469 1469 1468 1466 1463 1460 1457
1390 1393 1394 1393 1387 1380 1368 1363 1364 1368 1369 1367 1369 1370 1373 1375 1380 1385 1387 1389 1392 1397 1402 1409 1415 1422 1429 1436 1443 1449 1454 1458 1462 1464 1466 1467 1467 1467 1466 1465 1463 1460 1457 1453
1389 1390 1394 1393 1389 1385 1370 1363 1362 1366 1371 1364 1365 1368 1372 1375 1384 1385 1384 1388 1393 1399 1404 1410 1416 1423 1430 1437 1443 1448 1453 1457 1460 1462 1464 1465 1465 1465 1464 1462 1459 1456 1453 1449
1390 1391 1393 1393 1391 1382 1368 1363 1363 1375 1371 1363 1363 1364 1367 1370 1373 1378 1382 1386 1392 1398 1404 1410 1417 1424 1430 1437 1443 1448 1453 1456 1459 1460 1462 1463 1463 1462 1461 1459 1456 1452 1448 1444
1383 1387 1389 1389 1391 1384 1364 1363 1367 1367 1363 1362 1362 1362 1365 1369 1372 1376 1381 1386 1392 1398 1405 1411 1418 1425 1432 1438 1443 1448 1452 1455 1457 1459 1460 1461 1461 1459 1458 1455 1452 1448 1444 1439
1376 1375 1377 1378 1375 1367 1363 1363 1363 1363 1363 1363 1363 1363 1365 1369 1375 1379 1384 1390 1396 1402 1408 1415 1421 1427 1434 1440 1444 1448 1451 1453 1455 1457 1458 1458 1458 1457 1454 1451 1448 1444 1439 1433
1370 1368 1371 1372 1367 1364 1364 1363 1364 1364 1364 1365 1366 1367 1369 1372 1378 1383 1389 1395 1400 1406 1412 1418 1423 1429 1435 1440 1445 1448 1450 1452 1454 1456 1456 1456 1455 1454 1451 1448 1444 1439 1434 1429
1362 1365 1367 1367 1364 1363 1363 1364 1365 1366 1367 1368 1370 1372 1375 1377 1383 1388 1394 1400 1405 1410 1416 1422 1426 1431 1436 1440 1444 1447 1449 1451 1453 1454 1454 1454 1453 1450 1448 1444 1440 1435 1431 1426
1358 1360 1362 1362 1359 1361 1361 1363 1365 1367 1369 1371 1374 1377 1382 1384 1388 1394 1399 1404 1409 1414 1419 1424 1429 1433 1437 1441 1444 1447 1449 1451 1452 1452 1452 1451 1449 1447 1443 1440 1437 1432 1428 1423